Find Starlink 5689

NORAD ID: 55474 Int'l Des: 2023-015 Owner: SPXS Country: US Constellation: starlink operational
LEOCIRCULAR

Live Position

Loading 3D Globe...

About Starlink 5689

Description loading...

Upcoming Passes

Passes for default location (London). Set your location on the main map for personalized predictions.

Altitude History

Loading altitude history...

Two-Line Element Set

1 55474U 23015AB 26105.12470344 -.00005610 00000-0 -19435-3 0 9994
2 55474 43.0016 134.2969 0001172 268.3579 91.7138 15.27601271176168
Epoch: Apr 15, 2026 • Age: 25 hours

Current Status

Altitude 492.2 km
Velocity 7.62 km/s
Sub-Earth Point -34.46°S, 97.87°E
Launch Date Feb 2, 2023
Age 3.1 years
Type internet

Technical Details

Classification Payload
Mass 305.00 kg
Dry Mass 290.00 kg
Total Mass 305.00 kg
Length 0.20 m
Diameter 2.80 m
Span 9.00 m
Shape Box + pan
Manufacturer SPXS
Bus Type Starlink
Phase Status In Orbit
Owner/State SPXS/US

Most Searched